Location: Brachbach
(49.1847°N, 9.7240°E)
Time: 22:38:13
(UTC+00:00)

Cosmos 2360 Rocket - Pass Details

Date: 23 May 2024
Orbit: 832 x 846 km, 71.0° (Epoch: 14 June)

Event Time Altitude Azimuth Distance (km) Brightness Sun altitude
Rises 01:57:35 0° 329° (NNW) 3,417 5.7 -11.7°
Reaches altitude 10° 02:00:03 10° 327° (NNW) 2,478 4.9 -11.4°
Maximum altitude 02:05:40 64° 247° (WSW) 935 2.2 -10.8°
Drops below altitude 10° 02:11:15 10° 167° (SSE) 2,461 4.3 -10.2°
Sets 02:13:42 0° 164° (SSE) 3,391 5.0 -10.0°
